Orbital Elements at Epoch 2459200.5 (2020-Dec-17.0) TDB
Reference: JPL 33 (heliocentric ecliptic J2000)
Element | Value | Uncertainty (1-sigma) | Units |
e | .1587507273144617 | 3.7091e-08 | |
a | 2.464401158291459 | 1.2741e-08 | au |
q | 2.073175682018088 | 9.1779e-08 | au |
i | 11.51345608659584 | 5.0651e-06 | deg |
node | 343.221322161363 | 1.7279e-05 | deg |
peri | 245.6138507655462 | 2.4328e-05 | deg |
M | 238.57641660224 | 2.0433e-05 | deg |
tp | 2459677.113212899125 (2022-Apr-07.61321290) | 8.2236e-05 | TDB |
period | 1413.076042086651 3.87 | 1.0959e-05 3e-08 | d yr |
n | .2547633597045477 | 1.9757e-09 | deg/d |
Q | 2.85562663456483 | 1.4764e-08 | au |
|
| | Orbit Determination Parameters
Additional Information
|